Marion, OH

11:04 AM EDT on May 25, 2017 (GMT -0400)
Marion Municipal

Weather History for KMNN - February, 2014

Change the Weather History Date:

Saturday, February 22, 2014

  Actual Average (KDLZ) Record (KDLZ)
Temperature  
Mean Temperature 39 °F -  
Max Temperature 46 °F 42 °F 67 °F (1983)
Min Temperature 32 °F 23 °F -11 °F (1963)
Degree Days  
Heating Degree Days 26    
Moisture  
Dew Point 26 °F    
Average Humidity 63    
Maximum Humidity 85    
Minimum Humidity 52    
Precipitation  
Precipitation 0.00 in - - ()
Sea Level Pressure  
Sea Level Pressure 30.00 in    
Wind  
Wind Speed 12 mph (West)    
Max Wind Speed 18 mph    
Max Gust Speed 28 mph    
Visibility 10 miles    
Events      
Averages and records for this station are not official NWS values.
T = Trace of Precipitation, MM = Missing Value Source: NWS Daily Summary

Daily Weather History Graph

Daily Weather History Graph

Search for Another Location

Airport or City:

Trip Planner

Search our weather history database for the weather conditions in past years. The results will help you decide how hot, cold, wet, or windy it might be!

Date:

Astronomy

Feb. 22, 2014 Rise Set
Actual Time 7:16 AM EST 6:15 PM EST
Civil Twilight 6:48 AM EST 6:43 PM EST
Nautical Twilight 6:17 AM EST 7:15 PM EST
Astronomical Twilight 5:45 AM EST 7:46 PM EST
Moon 1:11 AM EST (2/22) 11:24 AM EST (2/22)
Length of Visible Light 11h 54m
Length of Day
10h 59m
Waning Gibbous, 50% of the Moon is Illuminated
Feb 22
Waning Gibbous
Feb 22
Last Quarter
Mar 1
New
Mar 8
First Quarter
Mar 16
Full

Hourly Weather History & Observations

Time (EST) Temp. Windchill Dew Point Humidity Pressure Visibility Wind Dir Wind Speed Gust Speed Precip Events Conditions
12:53 AM 32.0 °F 23.6 °F 21.0 °F 64% 29.93 in 10.0 mi SSW 10.4 mph - N/A   Clear
1:53 AM 34.0 °F 24.2 °F 21.0 °F 59% 29.92 in 10.0 mi SSW 15.0 mph - N/A   Overcast
2:53 AM 35.1 °F 24.8 °F 21.0 °F 57% 29.89 in 10.0 mi SSW 17.3 mph - N/A   Mostly Cloudy
3:53 AM 37.0 °F 27.0 °F 21.0 °F 52% 29.88 in 10.0 mi SSW 18.4 mph 27.6 mph N/A   Overcast
4:53 AM 36.0 °F 27.1 °F 21.9 °F 57% 29.89 in 10.0 mi SW 13.8 mph - N/A   Partly Cloudy
5:53 AM 37.9 °F 29.6 °F 21.9 °F 53% 29.92 in 10.0 mi WSW 13.8 mph - N/A   Clear
6:53 AM 37.0 °F 28.9 °F 24.1 °F 59% 29.96 in 10.0 mi WSW 12.7 mph - N/A   Clear
7:53 AM 37.0 °F 29.3 °F 25.0 °F 62% 30.00 in 10.0 mi WSW 11.5 mph - N/A   Clear
8:53 AM 37.9 °F 30.9 °F 27.0 °F 65% 30.03 in 10.0 mi West 10.4 mph - N/A   Clear
9:53 AM 39.0 °F 31.0 °F 26.1 °F 60% 30.05 in 10.0 mi West 13.8 mph 21.9 mph N/A   Clear
10:53 AM 41.0 °F 33.9 °F 27.0 °F 57% 30.06 in 10.0 mi West 12.7 mph - N/A   Clear
11:53 AM 44.1 °F 38.6 °F 28.0 °F 53% 30.04 in 10.0 mi WSW 10.4 mph 23.0 mph N/A   Clear
12:53 PM 45.0 °F 37.6 °F 28.0 °F 52% 30.06 in 10.0 mi West 17.3 mph 27.6 mph N/A   Clear
1:53 PM 46.0 °F 39.9 °F 30.0 °F 54% 30.03 in 10.0 mi WNW 13.8 mph - N/A   Clear
2:53 PM 46.0 °F 41.4 °F 30.0 °F 54% 30.01 in 10.0 mi WNW 9.2 mph - N/A   Mostly Cloudy
3:53 PM 44.1 °F 38.6 °F 28.9 °F 55% 30.02 in 10.0 mi NW 10.4 mph - N/A   Scattered Clouds
4:53 PM 43.0 °F 37.7 °F 28.0 °F 56% 30.01 in 10.0 mi NNW 9.2 mph - N/A   Mostly Cloudy
5:53 PM 39.9 °F 34.5 °F 28.0 °F 63% 30.01 in 10.0 mi NNW 8.1 mph - N/A   Overcast
6:53 PM 37.9 °F 32.1 °F 26.1 °F 62% 30.03 in 10.0 mi North 8.1 mph - N/A   Mostly Cloudy
7:53 PM 36.0 °F 32.1 °F 26.1 °F 67% 30.04 in 10.0 mi North 4.6 mph - N/A   Scattered Clouds
8:53 PM 36.0 °F 31.1 °F 28.0 °F 73% 30.04 in 10.0 mi NNW 5.8 mph - N/A   Overcast
9:46 PM 35.1 °F 29.3 °F 30.0 °F 82% 30.02 in 10.0 mi NNW 6.9 mph - N/A   Overcast
9:53 PM 35.1 °F 29.3 °F 30.0 °F 82% 30.05 in 10.0 mi NNW 6.9 mph - N/A   Overcast
10:53 PM 34.0 °F 31.0 °F 30.0 °F 85% 30.05 in 10.0 mi NW 3.5 mph - N/A   Overcast
11:53 PM 34.0 °F 31.0 °F 30.0 °F 85% 30.05 in 10.0 mi West 3.5 mph - N/A   Overcast